Location: Baia Mare
(47.6567°N, 23.5850°E)
Time: 09:24:47
(UTC+03:00)

ISS - Pass Details

Date: 12 July 2018
Orbit: 402 x 408 km, 51.6° (Epoch: 16 July)

Event Time Altitude Azimuth Distance (km) Brightness Sun altitude
Exits shadow 02:15:54 30° 102° (ESE) 768 -2.5 -19.6°
Drops below altitude 10° 02:17:57 10° 76° (ENE) 1,470 -0.7 -19.6°
Sets 02:20:07 0° 68° (ENE) 2,334 0.5 -19.5°
